Location: *
(42.0175°N, 9.4056°E)
Time: 01:14:17
(UTC+00:00)

Cosmos 1602 - Pass Details

Date: 25 August 2019
Orbit: 515 x 534 km, 82.5° (Epoch: 20 September)

Event Time Altitude Azimuth Distance (km) Brightness Sun altitude
Rises 18:36:50 0° 179° (S) 2,622 7.1 -5.9°
Reaches altitude 10° 18:38:58 10° 176° (S) 1,739 6.1 -6.3°
Maximum altitude 18:42:44 64° 95° (E) 577 3.7 -6.9°
Drops below altitude 10° 18:46:32 10° 14° (NNE) 1,752 6.5 -7.6°
Sets 18:48:41 0° 12° (NNE) 2,644 7.4 -8.0°
